Location: Newark
(34.4331°S, 150.8831°E)
Time: 08:25:43
(UTC+00:00)

X-37B - Visible Passes

Search period start: 01 October 2020 00:00
Search period end: 11 October 2020 00:00
Orbit: 386 x 387 km, 45.0° (Epoch: 18 September)

Date Brightness Start Highest point End Pass type
(mag) Time Alt. Az. Time Alt. Az. Time Alt. Az.
03 Oct 3.4 18:52:53 10° N 18:54:46 15° NE 18:56:39 10° E visible
05 Oct 2.2 18:31:11 10° NNW 18:34:02 30° NE 18:36:55 10° ESE visible
06 Oct 3.2 17:35:30 15° NE 17:35:38 15° NE 17:37:32 10° E visible
07 Oct 0.8 18:12:04 31° NW 18:13:24 66° NE 18:16:37 10° ESE visible
08 Oct 3.0 17:16:15 21° E 17:16:15 21° E 17:17:48 10° ESE visible
08 Oct 1.7 18:48:32 10° W 18:51:30 33° SSW 18:54:30 10° SE visible
09 Oct 0.7 17:52:37 57° SW 17:52:50 60° SSW 17:56:03 10° SE visible
10 Oct 3.6 16:56:38 17° ESE 16:56:38 17° ESE 16:57:29 10° ESE visible
10 Oct 2.5 18:28:54 12° WSW 18:31:07 22° SSW 18:33:44 10° SE visible
